Time,TemperatureF,DewpointF,PressureIn,WindDirection,WindDirectionDegrees,WindSpeedMPH,WindSpeedGustMPH,Humidity,HourlyPrecipIn,Conditions,Clouds,dailyrainin,SolarRadiationWatts/m^2,SoftwareType,DateUTC
2013-03-28 00:00:00,32.2,23.2,30.30,WSW,256,3.0,3.0,69,0.00,,,0.00,0,Wunderground v.1.15,2013-03-28 04:00:00,
2013-03-28 00:10:00,32.2,23.2,30.30,WSW,255,3.0,4.0,69,0.00,,,0.00,0,Wunderground v.1.15,2013-03-28 04:10:00,
2013-03-28 00:15:00,32.2,23.2,30.30,WSW,253,3.0,4.0,69,0.00,,,0.00,0,Wunderground v.1.15,2013-03-28 04:15:00,
2013-03-28 00:25:00,32.1,23.1,30.30,WSW,248,4.0,4.0,69,0.00,,,0.00,0,Wunderground v.1.15,2013-03-28 04:25:00,
2013-03-28 00:35:00,31.7,23.0,30.30,West,265,4.0,4.0,70,0.00,,,0.00,0,Wunderground v.1.15,2013-03-28 04:35:00,
2013-03-28 00:40:00,31.7,23.0,30.30,West,261,4.0,4.0,70,0.00,,,0.00,0,Wunderground v.1.15,2013-03-28 04:40:00,
2013-03-28 00:50:00,31.5,22.8,30.30,West,259,3.0,4.0,70,0.00,,,0.00,0,Wunderground v.1.15,2013-03-28 04:50:00,
2013-03-28 00:55:00,31.5,22.8,30.30,West,269,3.0,4.0,70,0.00,,,0.00,0,Wunderground v.1.15,2013-03-28 04:55:00,
2013-03-28 01:05:00,31.3,22.6,30.30,West,269,3.0,3.0,70,0.00,,,0.00,0,Wunderground v.1.15,2013-03-28 05:05:00,
2013-03-28 01:15:00,31.1,22.8,30.30,West,268,3.0,4.0,71,0.00,,,0.00,0,Wunderground v.1.15,2013-03-28 05:15:00,
2013-03-28 01:20:00,31.0,22.7,30.30,West,267,3.0,4.0,71,0.00,,,0.00,0,Wunderground v.1.15,2013-03-28 05:20:00,
2013-03-28 01:30:00,30.8,22.8,30.30,West,261,4.0,4.0,72,0.00,,,0.00,0,Wunderground v.1.15,2013-03-28 05:30:00,
2013-03-28 01:40:00,30.5,22.9,30.30,WSW,250,4.0,4.0,73,0.00,,,0.00,0,Wunderground v.1.15,2013-03-28 05:40:00,
2013-03-28 01:45:00,30.3,22.7,30.30,WSW,247,4.0,5.0,73,0.00,,,0.00,0,Wunderground v.1.15,2013-03-28 05:45:00,
2013-03-28 01:55:00,30.0,22.7,30.30,WSW,252,4.0,4.0,74,0.00,,,0.00,0,Wunderground v.1.15,2013-03-28 05:55:00,
2013-03-28 02:00:00,29.9,22.6,30.30,WSW,252,4.0,4.0,74,0.00,,,0.00,0,Wunderground v.1.15,2013-03-28 06:00:00,
2013-03-28 02:10:00,29.8,22.5,30.30,WSW,257,3.0,3.0,74,0.00,,,0.00,0,Wunderground v.1.15,2013-03-28 06:10:00,
2013-03-28 02:20:00,29.9,22.3,30.30,WSW,249,4.0,4.0,73,0.00,,,0.00,0,Wunderground v.1.15,2013-03-28 06:20:00,
2013-03-28 02:30:00,29.8,22.5,30.30,WSW,249,3.0,3.0,74,0.00,,,0.00,0,Wunderground v.1.15,2013-03-28 06:30:00,
2013-03-28 02:40:00,29.7,22.4,30.30,WSW,249,1.0,1.0,74,0.00,,,0.00,0,Wunderground v.1.15,2013-03-28 06:40:00,
2013-03-28 02:50:00,29.6,22.3,30.30,WSW,244,2.0,3.0,74,0.00,,,0.00,0,Wunderground v.1.15,2013-03-28 06:50:00,
2013-03-28 03:00:00,29.2,22.3,30.30,WSW,247,3.0,3.0,75,0.00,,,0.00,0,Wunderground v.1.15,2013-03-28 07:00:00,
2013-03-28 03:10:00,28.6,22.0,30.30,WSW,244,3.0,4.0,76,0.00,,,0.00,0,Wunderground v.1.15,2013-03-28 07:10:00,
2013-03-28 03:20:00,28.4,22.1,30.30,WSW,253,4.0,5.0,77,0.00,,,0.00,0,Wunderground v.1.15,2013-03-28 07:20:00,
2013-03-28 03:25:00,28.4,22.1,30.30,WSW,257,4.0,5.0,77,0.00,,,0.00,0,Wunderground v.1.15,2013-03-28 07:25:00,
2013-03-28 03:35:00,28.4,22.1,30.30,West,259,4.0,5.0,77,0.00,,,0.00,0,Wunderground v.1.15,2013-03-28 07:35:00,
2013-03-28 03:45:00,28.4,22.1,30.30,WSW,254,4.0,5.0,77,0.00,,,0.00,0,Wunderground v.1.15,2013-03-28 07:45:00,
2013-03-28 03:55:00,28.7,22.1,30.30,WSW,254,5.0,6.0,76,0.00,,,0.00,0,Wunderground v.1.15,2013-03-28 07:55:00,
2013-03-28 04:00:00,28.6,22.0,30.30,WSW,255,5.0,5.0,76,0.00,,,0.00,0,Wunderground v.1.15,2013-03-28 08:00:00,
2013-03-28 04:10:00,28.6,22.0,30.30,WSW,255,3.0,3.0,76,0.00,,,0.00,0,Wunderground v.1.15,2013-03-28 08:10:00,
2013-03-28 04:20:00,28.6,22.0,30.30,WSW,255,2.0,3.0,76,0.00,,,0.00,0,Wunderground v.1.15,2013-03-28 08:20:00,
2013-03-28 04:30:00,28.7,21.8,30.30,WSW,256,3.0,3.0,75,0.00,,,0.00,0,Wunderground v.1.15,2013-03-28 08:30:00,
2013-03-28 04:40:00,28.6,22.0,30.30,WSW,256,3.0,4.0,76,0.00,,,0.00,0,Wunderground v.1.15,2013-03-28 08:40:00,
2013-03-28 04:50:00,28.3,21.7,30.30,WSW,257,3.0,3.0,76,0.00,,,0.00,0,Wunderground v.1.15,2013-03-28 08:50:00,
2013-03-28 05:00:00,28.1,21.5,30.30,WSW,257,2.0,2.0,76,0.00,,,0.00,0,Wunderground v.1.15,2013-03-28 09:00:00,
2013-03-28 05:10:00,27.9,21.6,30.30,WSW,257,2.0,3.0,77,0.00,,,0.00,0,Wunderground v.1.15,2013-03-28 09:10:00,
2013-03-28 05:20:00,28.0,21.7,30.30,WSW,258,3.0,3.0,77,0.00,,,0.00,0,Wunderground v.1.15,2013-03-28 09:20:00,
2013-03-28 05:30:00,28.2,21.9,30.30,WSW,258,2.0,2.0,77,0.00,,,0.00,0,Wunderground v.1.15,2013-03-28 09:30:00,
2013-03-28 05:40:00,28.0,21.7,30.30,WSW,256,3.0,3.0,77,0.00,,,0.00,0,Wunderground v.1.15,2013-03-28 09:40:00,
2013-03-28 05:50:00,27.9,21.6,30.30,WSW,254,2.0,3.0,77,0.00,,,0.00,0,Wunderground v.1.15,2013-03-28 09:50:00,
2013-03-28 05:55:00,27.8,21.5,30.30,WSW,254,3.0,4.0,77,0.00,,,0.00,0,Wunderground v.1.15,2013-03-28 09:55:00,
2013-03-28 06:05:00,27.7,21.4,30.30,WSW,257,3.0,4.0,77,0.00,,,0.00,0,Wunderground v.1.15,2013-03-28 10:05:00,
2013-03-28 06:15:00,27.8,21.5,30.30,WSW,258,3.0,3.0,77,0.00,,,0.00,0,Wunderground v.1.15,2013-03-28 10:15:00,
2013-03-28 06:25:00,27.7,21.4,30.30,WSW,258,3.0,3.0,77,0.00,,,0.00,0,Wunderground v.1.15,2013-03-28 10:25:00,
2013-03-28 06:30:00,27.6,21.3,30.30,WSW,257,3.0,3.0,77,0.00,,,0.00,0,Wunderground v.1.15,2013-03-28 10:30:00,
2013-03-28 06:40:00,27.5,21.2,30.31,WSW,257,2.0,2.0,77,0.00,,,0.00,0,Wunderground v.1.15,2013-03-28 10:40:00,
2013-03-28 06:50:00,27.5,21.5,30.31,WSW,257,2.0,2.0,78,0.00,,,0.00,0,Wunderground v.1.15,2013-03-28 10:50:00,
2013-03-28 07:00:00,27.6,21.6,30.31,WSW,257,2.0,2.0,78,0.00,,,0.00,0,Wunderground v.1.15,2013-03-28 11:00:00,
2013-03-28 07:10:00,27.4,21.4,30.31,WSW,255,2.0,3.0,78,0.00,,,0.00,0,Wunderground v.1.15,2013-03-28 11:10:00,
2013-03-28 07:20:00,27.3,21.3,30.32,WSW,250,2.0,2.0,78,0.00,,,0.00,0,Wunderground v.1.15,2013-03-28 11:20:00,
2013-03-28 07:30:00,27.5,21.5,30.32,WSW,247,2.0,2.0,78,0.00,,,0.00,5,Wunderground v.1.15,2013-03-28 11:30:00,
2013-03-28 07:40:00,27.5,21.5,30.32,WSW,247,0.0,2.0,78,0.00,,,0.00,12,Wunderground v.1.15,2013-03-28 11:40:00,
2013-03-28 07:45:00,27.6,21.9,30.32,WSW,247,1.0,2.0,79,0.00,,,0.00,16,Wunderground v.1.15,2013-03-28 11:45:00,
2013-03-28 07:55:00,27.8,21.8,30.32,WSW,248,2.0,4.0,78,0.00,,,0.00,25,Wunderground v.1.15,2013-03-28 11:55:00,
2013-03-28 08:05:00,27.8,22.1,30.32,WSW,250,4.0,4.0,79,0.00,,,0.00,44,Wunderground v.1.15,2013-03-28 12:05:00,
2013-03-28 08:15:00,28.6,22.9,30.33,WSW,251,3.0,4.0,79,0.00,,,0.00,70,Wunderground v.1.15,2013-03-28 12:15:00,
2013-03-28 08:30:00,30.5,23.8,30.33,WSW,254,4.0,4.0,76,0.00,,,0.00,127,Wunderground v.1.15,2013-03-28 12:30:00,
2013-03-28 08:40:00,31.5,23.8,30.33,SW,228,4.0,8.0,73,0.00,,,0.00,165,Wunderground v.1.15,2013-03-28 12:40:00,
2013-03-28 08:50:00,32.6,24.2,30.33,WSW,257,5.0,5.0,71,0.00,,,0.00,207,Wunderground v.1.15,2013-03-28 12:50:00,
2013-03-28 09:00:00,33.4,24.3,30.33,West,268,5.0,7.0,69,0.00,,,0.00,244,Wunderground v.1.15,2013-03-28 13:00:00,
2013-03-28 09:10:00,34.2,24.7,30.33,WSW,247,4.0,4.0,68,0.00,,,0.00,279,Wunderground v.1.15,2013-03-28 13:10:00,
2013-03-28 09:20:00,34.9,25.0,30.33,WSW,255,3.0,3.0,67,0.00,,,0.00,311,Wunderground v.1.15,2013-03-28 13:20:00,
2013-03-28 09:30:00,35.7,25.1,30.34,West,265,4.0,4.0,65,0.00,,,0.00,345,Wunderground v.1.15,2013-03-28 13:30:00,
2013-03-28 09:35:00,36.1,25.5,30.34,WSW,257,5.0,5.0,65,0.00,,,0.00,362,Wunderground v.1.15,2013-03-28 13:35:00,
2013-03-28 09:45:00,36.9,25.5,30.34,West,273,5.0,5.0,63,0.00,,,0.00,390,Wunderground v.1.15,2013-03-28 13:45:00,
2013-03-28 09:50:00,37.2,25.4,30.34,WSW,250,5.0,6.0,62,0.00,,,0.00,406,Wunderground v.1.15,2013-03-28 13:50:00,
2013-03-28 10:00:00,37.7,25.8,30.34,WNW,290,5.0,5.0,62,0.00,,,0.00,438,Wunderground v.1.15,2013-03-28 14:00:00,
2013-03-28 10:10:00,38.4,26.1,30.34,WNW,283,4.0,4.0,61,0.00,,,0.00,469,Wunderground v.1.15,2013-03-28 14:10:00,
2013-03-28 10:20:00,38.8,26.1,30.34,WNW,283,4.0,4.0,60,0.00,,,0.00,499,Wunderground v.1.15,2013-03-28 14:20:00,
2013-03-28 10:30:00,39.2,26.1,30.34,WSW,255,4.0,4.0,59,0.00,,,0.00,527,Wunderground v.1.15,2013-03-28 14:30:00,
2013-03-28 10:40:00,39.6,26.4,30.34,WSW,254,4.0,4.0,59,0.00,,,0.00,555,Wunderground v.1.15,2013-03-28 14:40:00,
2013-03-28 10:50:00,40.2,27.0,30.34,WNW,286,5.0,5.0,59,0.00,,,0.00,582,Wunderground v.1.15,2013-03-28 14:50:00,
2013-03-28 11:00:00,40.9,26.4,30.34,WSW,252,4.0,6.0,56,0.00,,,0.00,605,Wunderground v.1.15,2013-03-28 15:00:00,
2013-03-28 11:10:00,41.3,26.8,30.34,WNW,290,5.0,5.0,56,0.00,,,0.00,629,Wunderground v.1.15,2013-03-28 15:10:00,
2013-03-28 11:20:00,41.8,27.2,30.34,NW,309,3.0,5.0,56,0.00,,,0.00,654,Wunderground v.1.15,2013-03-28 15:20:00,
2013-03-28 11:30:00,42.3,27.3,30.34,West,265,3.0,3.0,55,0.00,,,0.00,675,Wunderground v.1.15,2013-03-28 15:30:00,
2013-03-28 11:35:00,42.5,27.0,30.34,WNW,290,4.0,4.0,54,0.00,,,0.00,686,Wunderground v.1.15,2013-03-28 15:35:00,
2013-03-28 11:45:00,42.7,27.2,30.34,West,273,5.0,9.0,54,0.00,,,0.00,703,Wunderground v.1.15,2013-03-28 15:45:00,
2013-03-28 11:55:00,43.1,27.6,30.34,West,277,5.0,6.0,54,0.00,,,0.00,722,Wunderground v.1.15,2013-03-28 15:55:00,
2013-03-28 12:05:00,43.4,26.9,30.34,WNW,289,4.0,5.0,52,0.00,,,0.00,737,Wunderground v.1.15,2013-03-28 16:05:00,
2013-03-28 12:15:00,43.8,27.8,30.34,West,273,3.0,9.0,53,0.00,,,0.00,754,Wunderground v.1.15,2013-03-28 16:15:00,
2013-03-28 12:25:00,44.2,26.2,30.34,WSW,252,5.0,6.0,49,0.00,,,0.00,766,Wunderground v.1.15,2013-03-28 16:25:00,
2013-03-28 12:30:00,44.4,27.4,30.34,West,277,4.0,4.0,51,0.00,,,0.00,773,Wunderground v.1.15,2013-03-28 16:30:00,
2013-03-28 12:40:00,44.8,28.2,30.33,West,261,4.0,5.0,52,0.00,,,0.00,784,Wunderground v.1.15,2013-03-28 16:40:00,
2013-03-28 12:50:00,45.1,27.1,30.33,WSW,257,4.0,4.0,49,0.00,,,0.00,791,Wunderground v.1.15,2013-03-28 16:50:00,
2013-03-28 13:00:00,45.4,27.3,30.33,West,270,5.0,5.0,49,0.00,,,0.00,803,Wunderground v.1.15,2013-03-28 17:00:00,
2013-03-28 13:10:00,45.7,27.1,30.33,North,351,6.0,7.0,48,0.00,,,0.00,810,Wunderground v.1.15,2013-03-28 17:10:00,
2013-03-28 13:15:00,45.7,27.6,30.33,West,260,6.0,7.0,49,0.00,,,0.00,812,Wunderground v.1.15,2013-03-28 17:15:00,
2013-03-28 13:25:00,46.2,28.1,30.33,WSW,250,3.0,6.0,49,0.00,,,0.00,812,Wunderground v.1.15,2013-03-28 17:25:00,
2013-03-28 13:35:00,46.0,25.8,30.32,WSW,241,6.0,10.0,45,0.00,,,0.00,816,Wunderground v.1.15,2013-03-28 17:35:00,
2013-03-28 13:45:00,46.4,27.8,30.32,West,260,5.0,7.0,48,0.00,,,0.00,817,Wunderground v.1.15,2013-03-28 17:45:00,
2013-03-28 13:55:00,46.9,29.2,30.32,West,261,4.0,7.0,50,0.00,,,0.00,823,Wunderground v.1.15,2013-03-28 17:55:00,
2013-03-28 14:05:00,47.0,26.7,30.32,WNW,300,3.0,5.0,45,0.00,,,0.00,819,Wunderground v.1.15,2013-03-28 18:05:00,
2013-03-28 14:15:00,47.2,26.9,30.32,West,259,6.0,7.0,45,0.00,,,0.00,810,Wunderground v.1.15,2013-03-28 18:15:00,
2013-03-28 14:25:00,47.8,29.0,30.32,West,271,4.0,5.0,48,0.00,,,0.00,751,Wunderground v.1.15,2013-03-28 18:25:00,
2013-03-28 14:35:00,47.9,28.1,30.32,WNW,297,6.0,6.0,46,0.00,,,0.00,800,Wunderground v.1.15,2013-03-28 18:35:00,
2013-03-28 14:45:00,48.3,28.5,30.31,WSW,256,5.0,6.0,46,0.00,,,0.00,724,Wunderground v.1.15,2013-03-28 18:45:00,
2013-03-28 14:55:00,48.3,29.5,30.31,West,271,3.0,4.0,48,0.00,,,0.00,791,Wunderground v.1.15,2013-03-28 18:55:00,
2013-03-28 15:05:00,48.4,27.5,30.31,West,268,6.0,6.0,44,0.00,,,0.00,619,Wunderground v.1.15,2013-03-28 19:05:00,
2013-03-28 15:10:00,48.4,28.0,30.31,WSW,249,5.0,7.0,45,0.00,,,0.00,786,Wunderground v.1.15,2013-03-28 19:10:00,
2013-03-28 15:20:00,48.4,27.5,30.30,WNW,300,5.0,6.0,44,0.00,,,0.00,770,Wunderground v.1.15,2013-03-28 19:20:00,
2013-03-28 15:30:00,48.8,26.7,30.30,WSW,244,6.0,6.0,42,0.00,,,0.00,740,Wunderground v.1.15,2013-03-28 19:30:00,
2013-03-28 15:40:00,49.0,29.1,30.30,West,280,5.0,5.0,46,0.00,,,0.00,724,Wunderground v.1.15,2013-03-28 19:40:00,
2013-03-28 15:45:00,49.0,27.5,30.30,WSW,237,5.0,5.0,43,0.00,,,0.00,722,Wunderground v.1.15,2013-03-28 19:45:00,
2013-03-28 15:55:00,48.8,28.9,30.29,WNW,286,5.0,7.0,46,0.00,,,0.00,698,Wunderground v.1.15,2013-03-28 19:55:00,
2013-03-28 16:05:00,49.1,27.5,30.29,WSW,250,7.0,7.0,43,0.00,,,0.00,675,Wunderground v.1.15,2013-03-28 20:05:00,
2013-03-28 16:15:00,49.3,28.8,30.29,West,259,7.0,7.0,45,0.00,,,0.00,649,Wunderground v.1.15,2013-03-28 20:15:00,
2013-03-28 16:25:00,49.7,28.6,30.29,WSW,245,5.0,7.0,44,0.00,,,0.00,626,Wunderground v.1.15,2013-03-28 20:25:00,
2013-03-28 16:35:00,49.7,26.9,30.29,West,266,5.0,6.0,41,0.00,,,0.00,605,Wunderground v.1.15,2013-03-28 20:35:00,
2013-03-28 16:45:00,49.3,27.2,30.28,West,261,6.0,10.0,42,0.00,,,0.00,577,Wunderground v.1.15,2013-03-28 20:45:00,
2013-03-28 16:55:00,49.5,27.3,30.28,WNW,284,5.0,6.0,42,0.00,,,0.00,552,Wunderground v.1.15,2013-03-28 20:55:00,
2013-03-28 17:05:00,49.7,27.5,30.28,WNW,292,5.0,11.0,42,0.00,,,0.00,515,Wunderground v.1.15,2013-03-28 21:05:00,
2013-03-28 17:20:00,49.3,26.6,30.28,West,260,6.0,6.0,41,0.00,,,0.00,487,Wunderground v.1.15,2013-03-28 21:20:00,
2013-03-28 17:25:00,49.4,27.8,30.28,West,275,6.0,7.0,43,0.00,,,0.00,471,Wunderground v.1.15,2013-03-28 21:25:00,
2013-03-28 17:35:00,49.8,28.7,30.28,West,276,5.0,6.0,44,0.00,,,0.00,424,Wunderground v.1.15,2013-03-28 21:35:00,
2013-03-28 17:40:00,49.9,27.1,30.28,West,275,4.0,4.0,41,0.00,,,0.00,413,Wunderground v.1.15,2013-03-28 21:40:00,
2013-03-28 17:50:00,49.8,25.8,30.27,WNW,289,5.0,5.0,39,0.00,,,0.00,374,Wunderground v.1.15,2013-03-28 21:50:00,
2013-03-28 18:05:00,49.5,27.9,30.28,WNW,298,4.0,4.0,43,0.00,,,0.00,330,Wunderground v.1.15,2013-03-28 22:05:00,
2013-03-28 18:10:00,49.6,26.8,30.28,West,275,3.0,4.0,41,0.00,,,0.00,316,Wunderground v.1.15,2013-03-28 22:10:00,
2013-03-28 18:20:00,49.4,27.2,30.28,West,262,6.0,7.0,42,0.00,,,0.00,292,Wunderground v.1.15,2013-03-28 22:20:00,
2013-03-28 18:30:00,49.5,27.9,30.28,WNW,288,3.0,5.0,43,0.00,,,0.00,255,Wunderground v.1.15,2013-03-28 22:30:00,
2013-03-28 18:40:00,49.2,27.6,30.28,West,259,4.0,6.0,43,0.00,,,0.00,207,Wunderground v.1.15,2013-03-28 22:40:00,
2013-03-28 18:50:00,48.6,27.6,30.28,WSW,254,4.0,4.0,44,0.00,,,0.00,139,Wunderground v.1.15,2013-03-28 22:50:00,
2013-03-28 19:00:00,48.5,28.1,30.28,WNW,301,3.0,3.0,45,0.00,,,0.00,114,Wunderground v.1.15,2013-03-28 23:00:00,
2013-03-28 19:10:00,48.2,28.4,30.28,West,263,3.0,4.0,46,0.00,,,0.00,51,Wunderground v.1.15,2013-03-28 23:10:00,
2013-03-28 19:20:00,47.4,27.6,30.28,WSW,250,3.0,4.0,46,0.00,,,0.00,49,Wunderground v.1.15,2013-03-28 23:20:00,
2013-03-28 19:30:00,47.0,27.8,30.28,West,263,4.0,4.0,47,0.00,,,0.00,33,Wunderground v.1.15,2013-03-28 23:30:00,
2013-03-28 19:40:00,46.5,27.8,30.28,West,262,2.0,2.0,48,0.00,,,0.00,19,Wunderground v.1.15,2013-03-28 23:40:00,
2013-03-28 19:50:00,45.8,27.7,30.28,West,262,1.0,1.0,49,0.00,,,0.00,11,Wunderground v.1.15,2013-03-28 23:50:00,
2013-03-28 20:00:00,45.0,27.9,30.28,West,262,1.0,1.0,51,0.00,,,0.00,5,Wunderground v.1.15,2013-03-29 00:00:00,
2013-03-28 20:10:00,44.4,28.3,30.28,West,262,1.0,1.0,53,0.00,,,0.00,0,Wunderground v.1.15,2013-03-29 00:10:00,
2013-03-28 20:20:00,43.7,29.0,30.28,SW,232,1.0,1.0,56,0.00,,,0.00,0,Wunderground v.1.15,2013-03-29 00:20:00,
2013-03-28 20:30:00,43.2,29.0,30.29,SW,232,1.0,1.0,57,0.00,,,0.00,0,Wunderground v.1.15,2013-03-29 00:30:00,
2013-03-28 20:40:00,42.7,28.9,30.29,WSW,249,2.0,2.0,58,0.00,,,0.00,0,Wunderground v.1.15,2013-03-29 00:40:00,
2013-03-28 20:45:00,42.5,29.2,30.29,WSW,238,2.0,2.0,59,0.00,,,0.00,0,Wunderground v.1.15,2013-03-29 00:45:00,
2013-03-28 20:55:00,42.1,29.2,30.30,South,189,1.0,4.0,60,0.00,,,0.00,0,Wunderground v.1.15,2013-03-29 00:55:00,
2013-03-28 21:05:00,42.0,30.7,30.30,South,178,2.0,2.0,64,0.00,,,0.00,0,Wunderground v.1.15,2013-03-29 01:05:00,
2013-03-28 21:15:00,41.7,31.5,30.30,WSW,249,2.0,5.0,67,0.00,,,0.00,0,Wunderground v.1.15,2013-03-29 01:15:00,
2013-03-28 21:20:00,41.5,31.7,30.30,SSW,209,3.0,3.0,68,0.00,,,0.00,0,Wunderground v.1.15,2013-03-29 01:20:00,
2013-03-28 21:30:00,41.0,31.6,30.30,WSW,254,3.0,5.0,69,0.00,,,0.00,0,Wunderground v.1.15,2013-03-29 01:30:00,
2013-03-28 21:40:00,40.4,31.7,30.31,WSW,248,3.0,3.0,71,0.00,,,0.00,0,Wunderground v.1.15,2013-03-29 01:40:00,
2013-03-28 21:50:00,39.9,31.6,30.31,WSW,257,3.0,3.0,72,0.00,,,0.00,0,Wunderground v.1.15,2013-03-29 01:50:00,
2013-03-28 22:00:00,39.6,31.3,30.31,WSW,246,3.0,3.0,72,0.00,,,0.00,0,Wunderground v.1.15,2013-03-29 02:00:00,
2013-03-28 22:10:00,39.2,31.3,30.32,WSW,250,2.0,2.0,73,0.00,,,0.00,0,Wunderground v.1.15,2013-03-29 02:10:00,
2013-03-28 22:20:00,38.9,31.3,30.32,WSW,250,2.0,2.0,74,0.00,,,0.00,0,Wunderground v.1.15,2013-03-29 02:20:00,
2013-03-28 22:30:00,38.3,31.1,30.32,SW,227,2.0,3.0,75,0.00,,,0.00,0,Wunderground v.1.15,2013-03-29 02:30:00,
2013-03-28 22:40:00,38.2,31.0,30.32,SW,228,2.0,2.0,75,0.00,,,0.00,0,Wunderground v.1.15,2013-03-29 02:40:00,
2013-03-28 22:45:00,37.8,30.6,30.32,SW,228,1.0,2.0,75,0.00,,,0.00,0,Wunderground v.1.15,2013-03-29 02:45:00,
2013-03-28 22:55:00,37.5,30.6,30.32,SW,228,1.0,1.0,76,0.00,,,0.00,0,Wunderground v.1.15,2013-03-29 02:55:00,
2013-03-28 23:05:00,37.7,30.8,30.32,SW,229,2.0,3.0,76,0.00,,,0.00,0,Wunderground v.1.15,2013-03-29 03:05:00,
2013-03-28 23:10:00,37.6,30.7,30.32,SW,230,2.0,2.0,76,0.00,,,0.00,0,Wunderground v.1.15,2013-03-29 03:10:00,
2013-03-28 23:20:00,37.3,30.1,30.32,SW,234,2.0,2.0,75,0.00,,,0.00,0,Wunderground v.1.15,2013-03-29 03:20:00,
2013-03-28 23:25:00,37.2,30.3,30.32,SW,236,1.0,3.0,76,0.00,,,0.00,0,Wunderground v.1.15,2013-03-29 03:25:00,
2013-03-28 23:35:00,37.1,30.2,30.32,SW,236,2.0,3.0,76,0.00,,,0.00,0,Wunderground v.1.15,2013-03-29 03:35:00,
2013-03-28 23:45:00,36.2,29.7,30.32,WSW,239,2.0,2.0,77,0.00,,,0.00,0,Wunderground v.1.15,2013-03-29 03:45:00,
2013-03-28 23:55:00,35.5,29.6,30.32,WSW,240,2.0,2.0,79,0.00,,,0.00,0,Wunderground v.1.15,2013-03-29 03:55:00,